Ponca City, OK

8:05 AM CDT on May 30, 2017 (GMT -0500)
Ponca City Municipal

Weather History for KPNC - February, 2013

Change the Weather History Date:

Sunday, February 17, 2013

  Actual Average Record
Temperature  
Mean Temperature 52 °F -  
Max Temperature 71 °F 53 °F 81 °F (2011)
Min Temperature 32 °F 27 °F 15 °F (1975)
Degree Days  
Heating Degree Days 14    
Growing Degree Days 2 (Base 50)    
Moisture  
Dew Point 28 °F    
Average Humidity 47    
Maximum Humidity 79    
Minimum Humidity 16    
Precipitation  
Precipitation 0.00 in - - ()
Sea Level Pressure  
Sea Level Pressure 29.86 in    
Wind  
Wind Speed 8 mph (SSE)    
Max Wind Speed 18 mph    
Max Gust Speed 31 mph    
Visibility 10 miles    
Events      
Averages and records for this station are not official NWS values.
T = Trace of Precipitation, MM = Missing Value Source: NWS Daily Summary

Daily Weather History Graph

Daily Weather History Graph

Search for Another Location

Airport or City:

Trip Planner

Search our weather history database for the weather conditions in past years. The results will help you decide how hot, cold, wet, or windy it might be!

Date:

Astronomy

Feb. 17, 2013 Rise Set
Actual Time 7:13 AM CST 6:11 PM CST
Civil Twilight 6:47 AM CST 6:37 PM CST
Nautical Twilight 6:17 AM CST 7:07 PM CST
Astronomical Twilight 5:47 AM CST 7:37 PM CST
Moon 11:20 AM CST (2/17) 12:56 AM CST (2/17)
Length of Visible Light 11h 50m
Length of Day
10h 57m
Waxing Crescent, 49% of the Moon is Illuminated
Feb 17
Waxing Crescent
Feb 17
First Quarter
Feb 25
Full
Mar 4
Last Quarter
Mar 11
New

Hourly Weather History & Observations

Time (CST) Temp. Windchill Dew Point Humidity Pressure Visibility Wind Dir Wind Speed Gust Speed Precip Events Conditions
12:53 AM 39.9 °F 37.8 °F 30.0 °F 68% 30.03 in 10.0 mi South 3.5 mph - N/A   Clear
1:53 AM 39.0 °F 35.7 °F 30.0 °F 70% 30.03 in 10.0 mi South 4.6 mph - N/A   Clear
2:53 AM 37.9 °F 32.7 °F 28.9 °F 70% 30.02 in 10.0 mi South 6.9 mph - N/A   Clear
3:53 AM 37.0 °F 33.3 °F 28.9 °F 73% 30.01 in 10.0 mi SSE 4.6 mph - N/A   Clear
4:53 AM 36.0 °F 31.1 °F 28.0 °F 73% 30.00 in 10.0 mi SSE 5.8 mph - N/A   Clear
5:53 AM 33.1 °F 28.7 °F 27.0 °F 78% 30.00 in 10.0 mi SE 4.6 mph - N/A   Clear
6:53 AM 32.0 °F 25.6 °F 26.1 °F 79% 30.00 in 10.0 mi SE 6.9 mph - N/A   Clear
7:53 AM 35.1 °F 27.9 °F 28.0 °F 76% 29.98 in 10.0 mi SE 9.2 mph - N/A   Clear
8:53 AM 39.9 °F 33.9 °F 28.9 °F 65% 29.98 in 10.0 mi SE 9.2 mph - N/A   Clear
9:53 AM 48.2 °F - 30.2 °F 50% 29.95 in 10.0 mi South 6.9 mph - N/A   Clear
10:53 AM 50.0 °F - 30.9 °F 48% 29.94 in 10.0 mi South 5.8 mph - N/A   Clear
11:53 AM 55.9 °F - 30.9 °F 39% 29.91 in 10.0 mi SSE 11.5 mph - N/A   Clear
12:53 PM 62.1 °F - 32.0 °F 32% 29.85 in 10.0 mi SSE 10.4 mph 19.6 mph N/A   Clear
1:53 PM 66.0 °F - 30.0 °F 26% 29.80 in 10.0 mi SSE 15.0 mph - N/A   Clear
2:53 PM 71.1 °F - 27.0 °F 19% 29.76 in 10.0 mi South 13.8 mph 24.2 mph N/A   Clear
3:53 PM 71.1 °F - 23.0 °F 16% 29.74 in 10.0 mi South 12.7 mph 24.2 mph N/A   Clear
4:53 PM 70.0 °F - 23.0 °F 17% 29.71 in 10.0 mi South 11.5 mph 25.3 mph N/A   Clear
5:53 PM 66.0 °F - 26.1 °F 22% 29.70 in 10.0 mi South 9.2 mph - N/A   Clear
6:53 PM 63.0 °F - 27.0 °F 26% 29.70 in 10.0 mi South 8.1 mph - N/A   Clear
7:53 PM 62.1 °F - 27.0 °F 26% 29.70 in 10.0 mi South 12.7 mph 25.3 mph N/A   Clear
8:53 PM 60.1 °F - 30.0 °F 32% 29.69 in 10.0 mi SSE 18.4 mph 27.6 mph N/A   Clear
9:53 PM 59.0 °F - 30.0 °F 33% 29.67 in 10.0 mi South 17.3 mph 31.1 mph N/A   Clear
11:53 PM 57.0 °F - 30.9 °F 37% 29.64 in 10.0 mi South 15.0 mph 26.5 mph N/A   Clear